| time (UTC) | temp C | wind direction | speed KPH | gust KPH | rain 1hr cm | rain 24hr cm | rain mn cm | humidity % | barometer mb |
| 20260831212205 | 18 | 250 | 8.0 | 11.3 | 0.00 | 0.00 | 0.00 | 65 | 1015.7 |
| 20260831211205 | 18 | 241 | 3.2 | 6.4 | 0.00 | 0.00 | 0.00 | 67 | 1015.6 |
| 20260831210704 | 18 | 240 | 3.2 | 6.4 | 0.00 | 0.00 | 0.00 | 67 | 1015.6 |
| 20260831210205 | 18 | 241 | 1.6 | 8.0 | 0.00 | 0.05 | 0.00 | 67 | 1015.5 |
| 20260831205704 | 18 | 240 | 1.6 | 8.0 | 0.00 | 0.10 | 0.00 | 67 | 1015.3 |
| 20260831205204 | 18 | 240 | 1.6 | 11.3 | 0.00 | 0.10 | 0.00 | 66 | 1015.3 |
| 20260831204705 | 18 | 240 | 1.6 | 11.3 | 0.00 | 0.10 | 0.00 | 66 | 1015.2 |
| 20260831204204 | 18 | 237 | 3.2 | 14.5 | 0.00 | 0.10 | 0.00 | 65 | 1015.1 |
| 20260831203704 | 18 | 259 | 3.2 | 14.5 | 0.00 | 0.10 | 0.00 | 65 | 1015.0 |
| 20260831202706 | 19 | 233 | 4.8 | 9.7 | 0.00 | 0.10 | 0.00 | 65 | 1014.9 |
| 20260831202204 | 19 | 250 | 4.8 | 9.7 | 0.00 | 0.10 | 0.00 | 65 | 1014.8 |
| 20260831201704 | 19 | 233 | 3.2 | 9.7 | 0.00 | 0.10 | 0.00 | 65 | 1014.7 |
| 20260831201204 | 19 | 228 | 4.8 | 9.7 | 0.00 | 0.10 | 0.00 | 64 | 1014.7 |
| 20260831200706 | 19 | 241 | 3.2 | 9.7 | 0.00 | 0.10 | 0.00 | 64 | 1014.7 |
| 20260831200204 | 19 | 235 | 4.8 | 14.5 | 0.00 | 0.10 | 0.00 | 64 | 1014.5 |
| 20260831195703 | 19 | 213 | 3.2 | 14.5 | 0.00 | 0.10 | 0.00 | 64 | 1014.5 |
| 20260831195204 | 20 | 235 | 6.4 | 14.5 | 0.00 | 0.10 | 0.00 | 64 | 1014.5 |
| 20260831194704 | 20 | 237 | 3.2 | 14.5 | 0.00 | 0.10 | 0.00 | 64 | 1014.4 |
| 20260831194205 | 20 | 237 | 4.8 | 17.7 | 0.00 | 0.10 | 0.00 | 63 | 1014.2 |
| 20260831193709 | 20 | 251 | 6.4 | 17.7 | 0.00 | 0.10 | 0.00 | 63 | 1014.3 |
| 20260831192704 | 20 | 228 | 6.4 | 19.3 | 0.00 | 0.10 | 0.00 | 63 | 1014.2 |
| 20260831191704 | 20 | 259 | 6.4 | 16.1 | 0.00 | 0.10 | 0.00 | 63 | 1013.9 |
| 20260831191204 | 20 | 238 | 8.0 | 17.7 | 0.00 | 0.10 | 0.00 | 63 | 1013.9 |
| 20260831190704 | 20 | 285 | 4.8 | 17.7 | 0.00 | 0.10 | 0.00 | 63 | 1013.9 |
| 20260831185703 | 20 | 244 | 6.4 | 19.3 | 0.00 | 0.10 | 0.00 | 63 | 1013.7 |
| 20260831185205 | 20 | 243 | 3.2 | 19.3 | 0.00 | 0.10 | 0.00 | 63 | 1013.7 |
| 20260831184704 | 20 | 233 | 8.0 | 19.3 | 0.00 | 0.10 | 0.00 | 63 | 1013.7 |
| 20260831184204 | 21 | 228 | 8.0 | 20.9 | 0.00 | 0.10 | 0.00 | 63 | 1013.6 |
| 20260831183704 | 21 | 235 | 6.4 | 20.9 | 0.00 | 0.10 | 0.00 | 62 | 1013.5 |
| 20260831183204 | 21 | 231 | 8.0 | 20.9 | 0.00 | 0.10 | 0.00 | 62 | 1013.5 |
| 20260831182704 | 21 | 230 | 4.8 | 20.9 | 0.00 | 0.10 | 0.00 | 63 | 1013.4 |
| 20260831182204 | 21 | 216 | 6.4 | 8.0 | 0.00 | 0.10 | 0.00 | 65 | 1013.2 |
| 20260831181704 | 21 | 238 | 3.2 | 8.0 | 0.00 | 0.10 | 0.00 | 65 | 1013.1 |
| 20260831181205 | 21 | 238 | 3.2 | 8.0 | 0.00 | 0.10 | 0.00 | 64 | 1013.1 |
| 20260831180705 | 21 | 240 | 3.2 | 8.0 | 0.00 | 0.10 | 0.00 | 64 | 1013.0 |
| 20260831180204 | 21 | 238 | 1.6 | 9.7 | 0.00 | 0.10 | 0.00 | 64 | 1012.9 |
| 20260831174704 | 21 | 241 | 3.2 | 8.0 | 0.00 | 0.10 | 0.00 | 64 | 1012.7 |
| 20260831174203 | 21 | 237 | 1.6 | 8.0 | 0.00 | 0.10 | 0.00 | 64 | 1012.7 |
| 20260831173714 | 21 | 237 | 3.2 | 8.0 | 0.00 | 0.10 | 0.00 | 64 | 1012.7 |
| 20260831173204 | 21 | 237 | 3.2 | 6.4 | 0.00 | 0.10 | 0.00 | 64 | 1012.6 |
| 20260831172704 | 21 | 237 | 3.2 | 6.4 | 0.00 | 0.10 | 0.00 | 64 | 1012.6 |
| 20260831172204 | 21 | 237 | 3.2 | 6.4 | 0.00 | 0.10 | 0.00 | 64 | 1012.6 |
| 20260831171704 | 21 | 237 | 3.2 | 9.7 | 0.00 | 0.10 | 0.00 | 64 | 1012.5 |
| 20260831171228 | 21 | 237 | 1.6 | 9.7 | 0.00 | 0.10 | 0.00 | 65 | 1012.4 |
| 20260831170704 | 21 | 237 | 0.0 | 9.7 | 0.00 | 0.10 | 0.00 | 65 | 1012.4 |
| 20260831170204 | 21 | 247 | 3.2 | 8.0 | 0.00 | 0.10 | 0.00 | 65 | 1012.3 |
| 20260831165203 | 21 | 255 | 3.2 | 9.7 | 0.00 | 0.10 | 0.00 | 65 | 1012.2 |
| 20260831164704 | 21 | 255 | 3.2 | 9.7 | 0.00 | 0.10 | 0.00 | 65 | 1012.2 |
| 20260831163705 | 21 | 268 | 3.2 | 9.7 | 0.00 | 0.10 | 0.00 | 64 | 1012.1 |
| 20260831162705 | 21 | 217 | 3.2 | 11.3 | 0.00 | 0.10 | 0.00 | 66 | 1012.0 |
| 20260831162204 | 21 | 283 | 3.2 | 11.3 | 0.00 | 0.10 | 0.00 | 67 | 1012.1 |
| 20260831161705 | 21 | 254 | 1.6 | 11.3 | 0.00 | 0.10 | 0.00 | 66 | 1012.0 |
| 20260831160705 | 21 | 247 | 4.8 | 11.3 | 0.00 | 0.10 | 0.00 | 65 | 1012.0 |
| 20260831160207 | 21 | 286 | 6.4 | 14.5 | 0.00 | 0.10 | 0.00 | 65 | 1012.0 |
| 20260831155705 | 21 | 255 | 3.2 | 14.5 | 0.00 | 0.10 | 0.00 | 65 | 1011.9 |
| 20260831155204 | 21 | 228 | 1.6 | 9.7 | 0.00 | 0.10 | 0.00 | 66 | 1011.7 |
| 20260831154704 | 21 | 240 | 3.2 | 9.7 | 0.00 | 0.10 | 0.00 | 67 | 1011.7 |
| 20260831154204 | 21 | 233 | 3.2 | 9.7 | 0.00 | 0.10 | 0.00 | 67 | 1011.6 |
| 20260831153205 | 21 | 228 | 3.2 | 14.5 | 0.00 | 0.10 | 0.00 | 67 | 1011.6 |
| 20260831152707 | 21 | 240 | 3.2 | 14.5 | 0.00 | 0.10 | 0.00 | 67 | 1011.6 |
| 20260831152203 | 21 | 285 | 1.6 | 14.5 | 0.00 | 0.10 | 0.00 | 67 | 1011.5 |
| 20260831151704 | 21 | 259 | 1.6 | 14.5 | 0.00 | 0.10 | 0.00 | 65 | 1011.4 |
| 20260831151204 | 21 | 265 | 3.2 | 24.1 | 0.00 | 0.10 | 0.00 | 64 | 1011.3 |
| 20260831144704 | 23 | 214 | 9.7 | 25.7 | 0.00 | 0.10 | 0.00 | 54 | 1011.1 |
| 20260831144205 | 22 | 234 | 6.4 | 24.1 | 0.00 | 0.10 | 0.00 | 55 | 1011.0 |
| 20260831142704 | 22 | 245 | 8.0 | 20.9 | 0.00 | 0.10 | 0.00 | 57 | 1010.9 |
| 20260831142207 | 22 | 286 | 8.0 | 19.3 | 0.00 | 0.10 | 0.00 | 56 | 1010.8 |
| 20260831141704 | 22 | 251 | 6.4 | 19.3 | 0.00 | 0.10 | 0.00 | 58 | 1010.8 |
| 20260831141205 | 22 | 224 | 8.0 | 19.3 | 0.00 | 0.10 | 0.00 | 56 | 1010.7 |
| 20260831140704 | 23 | 188 | 4.8 | 19.3 | 0.00 | 0.10 | 0.00 | 56 | 1010.7 |
| 20260831140204 | 22 | 290 | 4.8 | 22.5 | 0.00 | 0.10 | 0.00 | 56 | 1010.5 |
| 20260831135709 | 22 | 228 | 4.8 | 22.5 | 0.00 | 0.10 | 0.00 | 58 | 1010.6 |
| 20260831135203 | 22 | 207 | 12.9 | 19.3 | 0.00 | 0.10 | 0.00 | 56 | 1010.7 |
| 20260831134704 | 22 | 257 | 9.7 | 19.3 | 0.00 | 0.10 | 0.00 | 58 | 1010.6 |
| 20260831134205 | 22 | 251 | 8.0 | 17.7 | 0.00 | 0.10 | 0.00 | 60 | 1010.6 |
| 20260831132704 | 21 | 244 | 8.0 | 20.9 | 0.00 | 0.10 | 0.00 | 62 | 1010.4 |
| 20260831132208 | 21 | 190 | 6.4 | 20.9 | 0.00 | 0.10 | 0.00 | 63 | 1010.3 |
| 20260831131705 | 21 | 250 | 4.8 | 20.9 | 0.00 | 0.10 | 0.00 | 62 | 1010.1 |
| 20260831131207 | 21 | 275 | 9.7 | 19.3 | 0.00 | 0.10 | 0.00 | 62 | 1010.2 |
| 20260831130707 | 21 | 279 | 8.0 | 19.3 | 0.00 | 0.10 | 0.00 | 62 | 1010.1 |
| 20260831125704 | 21 | 251 | 9.7 | 22.5 | 0.00 | 0.10 | 0.00 | 60 | 1009.9 |
| 20260831125208 | 21 | 252 | 4.8 | 22.5 | 0.00 | 0.10 | 0.00 | 60 | 1009.8 |
| 20260831124705 | 21 | 257 | 4.8 | 22.5 | 0.00 | 0.10 | 0.00 | 60 | 1009.8 |
| 20260831124208 | 21 | 247 | 8.0 | 14.5 | 0.00 | 0.10 | 0.00 | 61 | 1009.8 |
| 20260831123804 | 21 | 251 | 6.4 | 14.5 | 0.00 | 0.10 | 0.00 | 60 | 1009.7 |
| 20260831123204 | 21 | 303 | 4.8 | 19.3 | 0.00 | 0.10 | 0.00 | 60 | 1009.5 |
| 20260831122204 | 21 | 197 | 6.4 | 25.7 | 0.00 | 0.10 | 0.00 | 61 | 1009.5 |
| 20260831121733 | 21 | 233 | 6.4 | 25.7 | 0.00 | 0.10 | 0.00 | 60 | 1009.5 |
| 20260831121203 | 21 | 247 | 4.8 | 25.7 | 0.00 | 0.10 | 0.00 | 60 | 1009.2 |
| 20260831120704 | 21 | 252 | 9.7 | 25.7 | 0.00 | 0.10 | 0.00 | 59 | 1009.3 |
| 20260831120204 | 21 | 212 | 8.0 | 22.5 | 0.00 | 0.10 | 0.00 | 60 | 1009.2 |
| 20260831115706 | 21 | 234 | 6.4 | 22.5 | 0.00 | 0.10 | 0.00 | 63 | 1009.2 |
| 20260831115205 | 20 | 200 | 4.8 | 20.9 | 0.00 | 0.10 | 0.00 | 63 | 1009.2 |
| 20260831114704 | 21 | 204 | 11.3 | 20.9 | 0.00 | 0.10 | 0.00 | 61 | 1009.1 |
| 20260831114204 | 21 | 268 | 6.4 | 19.3 | 0.00 | 0.10 | 0.00 | 62 | 1009.1 |
| 20260831113732 | 20 | 231 | 3.2 | 19.3 | 0.00 | 0.10 | 0.00 | 64 | 1008.9 |
| 20260831113204 | 20 | 247 | 6.4 | 20.9 | 0.00 | 0.10 | 0.00 | 62 | 1009.0 |
| 20260831112203 | 21 | 261 | 9.7 | 17.7 | 0.00 | 0.10 | 0.00 | 63 | 1008.8 |
| 20260831111714 | 20 | 240 | 9.7 | 14.5 | 0.00 | 0.10 | 0.00 | 64 | 1008.7 |
| 20260831110703 | 20 | 248 | 3.2 | 16.1 | 0.00 | 0.10 | 0.00 | 64 | 1008.7 |
| 20260831105204 | 20 | 255 | 6.4 | 17.7 | 0.00 | 0.10 | 0.00 | 66 | 1008.5 |
| 20260831104704 | 20 | 243 | 6.4 | 17.7 | 0.00 | 0.10 | 0.00 | 68 | 1008.4 |
| 20260831103703 | 20 | 252 | 6.4 | 17.7 | 0.00 | 0.10 | 0.00 | 67 | 1008.2 |
| 20260831103204 | 20 | 186 | 6.4 | 17.7 | 0.00 | 0.10 | 0.00 | 68 | 1008.3 |
| 20260831102704 | 20 | 245 | 4.8 | 17.7 | 0.00 | 0.10 | 0.00 | 70 | 1008.2 |
| 20260831102203 | 19 | 185 | 3.2 | 17.7 | 0.00 | 0.10 | 0.00 | 71 | 1008.1 |
| 20260831101704 | 19 | 209 | 3.2 | 17.7 | 0.00 | 0.10 | 0.00 | 71 | 1008.1 |
| 20260831101204 | 19 | 247 | 4.8 | 19.3 | 0.00 | 0.10 | 0.00 | 71 | 1008.0 |
| 20260831100704 | 19 | 193 | 4.8 | 19.3 | 0.00 | 0.10 | 0.00 | 73 | 1008.0 |
| 20260831100204 | 18 | 238 | 4.8 | 16.1 | 0.00 | 0.10 | 0.00 | 74 | 1008.0 |
| 20260831095704 | 18 | 228 | 6.4 | 16.1 | 0.00 | 0.10 | 0.00 | 74 | 1007.9 |
| 20260831095204 | 18 | 241 | 6.4 | 20.9 | 0.00 | 0.10 | 0.00 | 73 | 1007.9 |
| 20260831094204 | 18 | 240 | 3.2 | 20.9 | 0.00 | 0.10 | 0.00 | 74 | 1007.7 |
| 20260831093707 | 18 | 231 | 4.8 | 20.9 | 0.00 | 0.10 | 0.00 | 74 | 1007.8 |
| 20260831093204 | 18 | 245 | 6.4 | 22.5 | 0.00 | 0.10 | 0.00 | 75 | 1007.6 |
| 20260831091706 | 18 | 261 | 6.4 | 17.7 | 0.00 | 0.10 | 0.00 | 74 | 1007.4 |
| 20260831091204 | 18 | 237 | 6.4 | 22.5 | 0.00 | 0.10 | 0.00 | 74 | 1007.4 |
| 20260831090705 | 18 | 230 | 4.8 | 22.5 | 0.00 | 0.10 | 0.00 | 75 | 1007.1 |
| 20260831090204 | 17 | 247 | 6.4 | 19.3 | 0.00 | 0.10 | 0.00 | 75 | 1007.1 |
| 20260831085704 | 17 | 237 | 9.7 | 19.3 | 0.00 | 0.10 | 0.00 | 75 | 1007.1 |
| 20260831085226 | 17 | 259 | 8.0 | 19.3 | 0.00 | 0.10 | 0.00 | 76 | 1007.0 |
| 20260831084230 | 17 | 237 | 6.4 | 19.3 | 0.00 | 0.10 | 0.00 | 76 | 1006.9 |
| 20260831083704 | 17 | 243 | 3.2 | 19.3 | 0.00 | 0.10 | 0.00 | 76 | 1006.7 |
| 20260831083204 | 17 | 235 | 4.8 | 14.5 | 0.00 | 0.10 | 0.00 | 77 | 1006.7 |
| 20260831082703 | 17 | 243 | 4.8 | 14.5 | 0.00 | 0.10 | 0.00 | 77 | 1006.6 |
| 20260831082204 | 16 | 247 | 4.8 | 16.1 | 0.00 | 0.10 | 0.00 | 77 | 1006.5 |
| 20260831081703 | 16 | 252 | 6.4 | 16.1 | 0.00 | 0.10 | 0.00 | 78 | 1006.5 |
| 20260831080704 | 16 | 247 | 6.4 | 16.1 | 0.00 | 0.10 | 0.00 | 78 | 1006.4 |
| 20260831080205 | 16 | 199 | 4.8 | 22.5 | 0.00 | 0.10 | 0.00 | 78 | 1006.4 |
| 20260831075704 | 16 | 230 | 4.8 | 22.5 | 0.00 | 0.10 | 0.00 | 78 | 1006.3 |
| 20260831075205 | 16 | 264 | 6.4 | 22.5 | 0.00 | 0.10 | 0.00 | 78 | 1006.2 |
| 20260831074704 | 16 | 200 | 8.0 | 22.5 | 0.00 | 0.10 | 0.00 | 78 | 1006.2 |
| 20260831073704 | 15 | 207 | 9.7 | 11.3 | 0.00 | 0.10 | 0.00 | 78 | 1005.9 |
| 20260831073205 | 15 | 226 | 3.2 | 19.3 | 0.00 | 0.10 | 0.00 | 78 | 1005.8 |
| 20260831072704 | 15 | 238 | 6.4 | 19.3 | 0.00 | 0.10 | 0.00 | 78 | 1005.8 |
| 20260831072204 | 15 | 186 | 3.2 | 11.3 | 0.00 | 0.10 | 0.00 | 78 | 1005.7 |
| 20260831071705 | 15 | 238 | 4.8 | 11.3 | 0.00 | 0.10 | 0.00 | 78 | 1005.7 |
| 20260831071204 | 15 | 161 | 6.4 | 16.1 | 0.00 | 0.10 | 0.00 | 77 | 1005.6 |
| 20260831070203 | 15 | 230 | 6.4 | 17.7 | 0.00 | 0.10 | 0.00 | 77 | 1005.5 |
| 20260831065704 | 15 | 204 | 3.2 | 17.7 | 0.00 | 0.10 | 0.00 | 77 | 1005.5 |
| 20260831065206 | 15 | 220 | 4.8 | 14.5 | 0.00 | 0.10 | 0.00 | 77 | 1005.4 |
| 20260831064705 | 15 | 248 | 4.8 | 14.5 | 0.00 | 0.10 | 0.00 | 77 | 1005.4 |
| 20260831063704 | 15 | 245 | 4.8 | 11.3 | 0.00 | 0.10 | 0.00 | 77 | 1005.3 |
| 20260831063204 | 15 | 235 | 3.2 | 16.1 | 0.00 | 0.10 | 0.00 | 77 | 1005.1 |
| 20260831062706 | 15 | 234 | 4.8 | 16.1 | 0.00 | 0.10 | 0.00 | 77 | 1005.1 |
| 20260831062205 | 14 | 209 | 3.2 | 16.1 | 0.00 | 0.10 | 0.00 | 77 | 1005.1 |
| 20260831061704 | 14 | 216 | 3.2 | 16.1 | 0.00 | 0.10 | 0.00 | 77 | 1004.9 |
| 20260831060704 | 14 | 189 | 3.2 | 9.7 | 0.00 | 0.10 | 0.00 | 76 | 1004.7 |
| 20260831055704 | 14 | 259 | 3.2 | 16.1 | 0.00 | 0.10 | 0.00 | 76 | 1004.6 |
| 20260831055204 | 14 | 206 | 3.2 | 9.7 | 0.00 | 0.10 | 0.00 | 76 | 1004.6 |
| 20260831054703 | 14 | 257 | 3.2 | 9.7 | 0.00 | 0.10 | 0.00 | 76 | 1004.4 |
| 20260831054204 | 14 | 176 | 1.6 | 16.1 | 0.00 | 0.10 | 0.00 | 77 | 1004.4 |
| 20260831053704 | 14 | 209 | 1.6 | 16.1 | 0.00 | 0.10 | 0.00 | 77 | 1004.2 |
| 20260831053204 | 14 | 244 | 3.2 | 14.5 | 0.00 | 0.10 | 0.00 | 77 | 1004.2 |
| 20260831052704 | 14 | 264 | 3.2 | 14.5 | 0.00 | 0.10 | 0.00 | 77 | 1004.1 |
| 20260831052204 | 14 | 243 | 3.2 | 14.5 | 0.00 | 0.10 | 0.00 | 77 | 1004.2 |
| 20260831051704 | 14 | 247 | 4.8 | 14.5 | 0.00 | 0.10 | 0.00 | 76 | 1004.2 |
| 20260831051204 | 14 | 233 | 3.2 | 14.5 | 0.00 | 0.10 | 0.00 | 76 | 1004.1 |
| 20260831050704 | 14 | 186 | 3.2 | 9.7 | 0.00 | 0.10 | 0.00 | 76 | 1004.0 |
| 20260831050204 | 15 | 265 | 1.6 | 9.7 | 0.00 | 0.10 | 0.00 | 76 | 1003.8 |
| 20260831045704 | 15 | 188 | 3.2 | 9.7 | 0.00 | 0.10 | 0.00 | 77 | 1003.8 |
| 20260831044704 | 15 | 226 | 1.6 | 8.0 | 0.00 | 0.10 | 0.00 | 77 | 1003.6 |
| 20260831044203 | 15 | 178 | 3.2 | 8.0 | 0.00 | 0.10 | 0.00 | 77 | 1003.6 |
| 20260831043706 | 15 | 185 | 1.6 | 11.3 | 0.00 | 0.10 | 0.00 | 77 | 1003.5 |
| 20260831042704 | 15 | 244 | 3.2 | 11.3 | 0.00 | 0.10 | 0.00 | 77 | 1003.5 |
| 20260831042208 | 15 | 251 | 3.2 | 11.3 | 0.00 | 0.10 | 0.00 | 77 | 1003.5 |
| 20260831041704 | 15 | 238 | 1.6 | 8.0 | 0.00 | 0.10 | 0.00 | 77 | 1003.5 |
| 20260831041204 | 15 | 235 | 1.6 | 8.0 | 0.00 | 0.10 | 0.00 | 77 | 1003.4 |
| 20260831040704 | 15 | 195 | 1.6 | 9.7 | 0.00 | 0.10 | 0.00 | 77 | 1003.4 |
| 20260831040206 | 15 | 199 | 3.2 | 9.7 | 0.00 | 0.10 | 0.00 | 77 | 1003.4 |
| 20260831035204 | 15 | 257 | 3.2 | 14.5 | 0.00 | 0.10 | 0.00 | 77 | 1003.3 |
| 20260831034704 | 15 | 247 | 3.2 | 14.5 | 0.00 | 0.10 | 0.00 | 77 | 1003.4 |
| 20260831034203 | 15 | 241 | 3.2 | 14.5 | 0.00 | 0.10 | 0.00 | 77 | 1003.3 |
| 20260831033204 | 15 | 193 | 3.2 | 17.7 | 0.00 | 0.10 | 0.00 | 77 | 1003.3 |
| 20260831032204 | 16 | 158 | 1.6 | 17.7 | 0.00 | 0.10 | 0.00 | 77 | 1003.1 |
| 20260831031203 | 16 | 233 | 4.8 | 11.3 | 0.00 | 0.10 | 0.00 | 76 | 1003.1 |
| 20260831030704 | 16 | 221 | 3.2 | 11.3 | 0.00 | 0.10 | 0.00 | 76 | 1003.1 |
| 20260831030204 | 16 | 245 | 3.2 | 11.3 | 0.00 | 0.10 | 0.00 | 75 | 1003.1 |
| 20260831025705 | 16 | 213 | 3.2 | 11.3 | 0.00 | 0.10 | 0.00 | 75 | 1003.0 |
| 20260831025204 | 16 | 244 | 0.0 | 9.7 | 0.00 | 0.10 | 0.00 | 75 | 1002.9 |
| 20260831024704 | 16 | 180 | 1.6 | 9.7 | 0.00 | 0.10 | 0.00 | 75 | 1002.9 |
| 20260831023704 | 16 | 176 | 3.2 | 9.7 | 0.00 | 0.10 | 0.00 | 74 | 1002.8 |
| 20260831023203 | 16 | 172 | 3.2 | 11.3 | 0.00 | 0.10 | 0.00 | 74 | 1002.7 |
| 20260831022704 | 16 | 144 | 1.6 | 11.3 | 0.00 | 0.10 | 0.00 | 74 | 1002.6 |
| 20260831022204 | 16 | 248 | 3.2 | 17.7 | 0.00 | 0.10 | 0.00 | 73 | 1002.5 |
| 20260831021705 | 16 | 200 | 0.0 | 17.7 | 0.00 | 0.10 | 0.00 | 73 | 1002.5 |
| 20260831021204 | 16 | 168 | 1.6 | 8.0 | 0.00 | 0.10 | 0.00 | 73 | 1002.4 |
| 20260831015704 | 16 | 188 | 1.6 | 8.0 | 0.00 | 0.10 | 0.00 | 73 | 1002.5 |
| 20260831015209 | 16 | 179 | 1.6 | 9.7 | 0.00 | 0.10 | 0.00 | 73 | 1002.5 |
| 20260831014706 | 16 | 172 | 1.6 | 9.7 | 0.00 | 0.10 | 0.00 | 73 | 1002.4 |
| 20260831014207 | 16 | 182 | 0.0 | 9.7 | 0.00 | 0.10 | 0.00 | 73 | 1002.6 |
| 20260831013704 | 16 | 180 | 1.6 | 9.7 | 0.00 | 0.10 | 0.00 | 73 | 1002.6 |
| 20260831013204 | 16 | 104 | 1.6 | 9.7 | 0.00 | 0.10 | 0.00 | 73 | 1002.6 |
| 20260831012204 | 16 | 180 | 1.6 | 9.7 | 0.00 | 0.10 | 0.00 | 74 | 1002.7 |
| 20260831011704 | 16 | 182 | 1.6 | 9.7 | 0.00 | 0.10 | 0.00 | 74 | 1002.8 |
| 20260831011205 | 16 | 179 | 3.2 | 9.7 | 0.00 | 0.10 | 0.00 | 74 | 1002.8 |
| 20260831010710 | 16 | 155 | 3.2 | 8.0 | 0.00 | 0.10 | 0.00 | 74 | 1002.9 |
| 20260831010204 | 16 | 214 | 3.2 | 11.3 | 0.00 | 0.10 | 0.00 | 75 | 1002.9 |
| 20260831005704 | 16 | 216 | 3.2 | 11.3 | 0.00 | 0.10 | 0.00 | 75 | 1003.1 |
| 20260831005204 | 16 | 162 | 1.6 | 11.3 | 0.00 | 0.10 | 0.00 | 74 | 1003.0 |
| 20260831004704 | 16 | 71 | 3.2 | 11.3 | 0.00 | 0.10 | 0.00 | 74 | 1003.0 |
| 20260831004209 | 16 | 179 | 1.6 | 6.4 | 0.00 | 0.10 | 0.00 | 74 | 1002.9 |
| 20260831003704 | 16 | 168 | 1.6 | 6.4 | 0.00 | 0.10 | 0.00 | 74 | 1003.0 |
| 20260831003207 | 16 | 176 | 0.0 | 9.7 | 0.00 | 0.10 | 0.00 | 74 | 1002.9 |
| 20260831002705 | 16 | 186 | 1.6 | 9.7 | 0.00 | 0.10 | 0.00 | 74 | 1003.0 |
| 20260831002207 | 16 | 175 | 1.6 | 8.0 | 0.00 | 0.10 | 0.00 | 74 | 1003.0 |
| 20260831001209 | 16 | 180 | 0.0 | 6.4 | 0.00 | 0.10 | 0.00 | 74 | 1003.3 |
| 20260831000704 | 16 | 171 | 1.6 | 6.4 | 0.00 | 0.10 | 0.00 | 74 | 1003.5 |
| 20260831000205 | 16 | 165 | 0.0 | 11.3 | 0.00 | 0.10 | 0.00 | 74 | 1003.5 |
| 20260830235704 | 16 | 165 | 0.0 | 11.3 | 0.00 | 0.10 | 0.00 | 74 | 1003.5 |
| 20260830234705 | 16 | 165 | 0.0 | 11.3 | 0.00 | 0.10 | 0.00 | 74 | 1003.5 |
| 20260830234204 | 16 | 165 | 1.6 | 4.8 | 0.00 | 0.10 | 0.00 | 74 | 1003.7 |
| 20260830233704 | 16 | 157 | 0.0 | 4.8 | 0.00 | 0.10 | 0.00 | 74 | 1003.7 |
| 20260830232704 | 16 | 168 | 0.0 | 4.8 | 0.00 | 0.10 | 0.00 | 75 | 1003.7 |
| 20260830232203 | 16 | 165 | 1.6 | 4.8 | 0.00 | 0.10 | 0.00 | 75 | 1003.7 |
| 20260830231204 | 16 | 171 | 1.6 | 6.4 | 0.00 | 0.10 | 0.00 | 75 | 1003.8 |
| 20260830230228 | 16 | 178 | 1.6 | 9.7 | 0.00 | 0.10 | 0.10 | 75 | 1004.0 |
| 20260830225708 | 16 | 180 | 0.0 | 9.7 | 0.00 | 0.10 | 0.10 | 75 | 1004.1 |
| 20260830225204 | 16 | 179 | 1.6 | 11.3 | 0.00 | 0.10 | 0.10 | 75 | 1004.2 |
| 20260830224704 | 16 | 180 | 1.6 | 11.3 | 0.00 | 0.10 | 0.10 | 75 | 1004.1 |
| 20260830224204 | 16 | 188 | 3.2 | 11.3 | 0.00 | 0.10 | 0.10 | 75 | 1004.2 |
| 20260830223704 | 16 | 190 | 1.6 | 11.3 | 0.00 | 0.10 | 0.10 | 75 | 1004.3 |
| 20260830223204 | 16 | 209 | 1.6 | 14.5 | 0.00 | 0.10 | 0.10 | 76 | 1004.3 |
| 20260830222205 | 16 | 179 | 1.6 | 14.5 | 0.00 | 0.10 | 0.10 | 76 | 1004.3 |
| 20260830221705 | 16 | 159 | 1.6 | 14.5 | 0.00 | 0.10 | 0.10 | 75 | 1004.3 |
| 20260830221205 | 16 | 162 | 3.2 | 8.0 | 0.00 | 0.10 | 0.10 | 75 | 1004.4 |
| 20260830220704 | 16 | 186 | 1.6 | 8.0 | 0.00 | 0.10 | 0.10 | 75 | 1004.3 |
| 20260830220214 | 16 | 188 | 1.6 | 8.0 | 0.05 | 0.10 | 0.10 | 75 | 1004.3 |
| 20260830215704 | 16 | 179 | 1.6 | 8.0 | 0.10 | 0.10 | 0.10 | 75 | 1004.3 |
| 20260830215217 | 16 | 180 | 0.0 | 8.0 | 0.10 | 0.10 | 0.10 | 75 | 1004.3 |
| 20260830214204 | 17 | 133 | 3.2 | 9.7 | 0.10 | 0.10 | 0.10 | 75 | 1004.4 |
| 20260830213704 | 17 | 173 | 1.6 | 9.7 | 0.10 | 0.10 | 0.10 | 75 | 1004.4 |
| 20260830213225 | 17 | 154 | 1.6 | 8.0 | 0.10 | 0.10 | 0.10 | 75 | 1004.4 |